Regional Weather Roundup
Issued by NWS

Home | Current Version | Previous Version | Text Only | Print | Product List | Glossary On
Versions: 1 2 3 4 5 6 7 8 9 10 11 12 13 14 15 16 17 18 19 20 21 22 23 24 25 26 27 28 29 30 31 32 33 34 35 36 37 38 39 40 41 42 43 44 45 46 47 48 49 50
000
ASUS44 KOUN 171910
RWROK

WEATHER ROUNDUP FOR OKLAHOMA
NATIONAL WEATHER SERVICE NORMAN OK
200 PM CDT THU APR 17 2014

NOTE: "FAIR" INDICATES FEW OR NO CLOUDS BELOW 12,000 FEET WITH NO
      SIGNIFICANT WEATHER AND/OR OBSTRUCTIONS TO VISIBILITY.

OKZ001>007-009>012-014-015-017-172000-
NORTHWEST OKLAHOMA AND THE PANHANDLE

CITY           SKY/WX    TMP DP  RH WIND       PRES   REMARKS
GAGE           CLOUDY    49  31  49 NE13      30.23F
ENID/VANCE AFB CLOUDY    52  37  58 NE13      30.24S
ENID/WOODRING  CLOUDY    52  36  54 N12       30.24S
$$

OKZ016-021>023-033>039-044-045-172000-
SOUTHWEST OKLAHOMA

CITY           SKY/WX    TMP DP  RH WIND       PRES   REMARKS
LAWTON/REGL    CLOUDY    64  49  57 E9        30.15S
LAWTON/FT SILL CLOUDY    63  49  60 NE12      30.15R
FREDERICK      CLOUDY    61  49  64 NE12      30.11S
CLINTON        CLOUDY    54  37  52 NE14      30.22S
HOBART         CLOUDY    57  43  59 NE13      30.18S
ALTUS AFB      CLOUDY    58  47  66 NE16      30.15F
$$

OKZ018>020-024>031-172000-
CENTRAL OKLAHOMA

CITY           SKY/WX    TMP DP  RH WIND       PRES   REMARKS
OKLAHOMA CITY  CLOUDY    60  42  51 N9        30.20S
OKC/WILEY POST CLOUDY    58  37  45 N12       30.21S
OKC/TINKER AFB CLOUDY    58  44  57 N9        30.20S
STILLWATER     CLOUDY    56  37  49 N14       30.24R
GUTHRIE        CLOUDY    57  38  48 NE7       30.23R
$$

OKZ008-013-054>072-172000-
NORTHEAST OKLAHOMA

CITY           SKY/WX    TMP DP  RH WIND       PRES   REMARKS
TULSA          CLOUDY    61  43  51 NW5       30.21F
TULSA/JONES    PTSUNNY   63  42  46 NE7       30.21F
PONCA CITY     CLOUDY    53  33  46 N13       30.26S
BARTLESVILLE   CLOUDY    56  36  47 VRB5      30.27S
MUSKOGEE       MOSUNNY   67  43  41 MISG      30.21F
$$

OKZ032-040>043-046>053-073>077-172000-
SOUTH CENTRAL/SOUTHEAST OKLAHOMA

CITY           SKY/WX    TMP DP  RH WIND       PRES   REMARKS
ARDMORE/DWNTWN   N/A     63  50  63 S8        30.16F
MCALESTER      CLOUDY    65  42  43 CALM      30.18F
$$




USA.gov is the U.S. government's official web portal to all federal, state and local government web resources and services.